Regional Weather Roundup
Issued by NWS Green Bay, WI

Home | Current Version | Previous Version | Graphics & Text | Print | Product List | Glossary Off
Versions: 1 2 3 4 5 6 7 8 9 10 11 12 13 14 15 16 17 18 19 20 21 22 23 24 25 26 27 28 29 30 31 32 33 34 35 36 37 38 39 40 41 42 43 44 45 46 47 48 49 50

000
ASUS43 KGRB 120710
RWRGRB

NORTH-CENTRAL AND NORTHEAST WISCONSIN REGIONAL WEATHER ROUNDUP
NATIONAL WEATHER SERVICE GREEN BAY WI
200 AM CDT SAT JUL 12 2014

WIZ005-009-010>012-018-019-120800-
NORTH CENTRAL WISCONSIN

CITY           SKY/WX    TMP DP  RH WIND       PRES   REMARKS
IRONWOOD       PTCLDY    68  63  83 SW7       29.97F
MANITOWISH WTR PTCLDY    64  63  98 SW5       30.03F
ARBOR VITAE    MOCLDY    65  62  90 SW5       30.04F
EAGLE RIVER    MOCLDY    66  59  79 SW5       30.03F
LAND O LAKES   CLOUDY    67  62  83 SW3       30.04F
RHINELANDER    MOCLDY    65  61  87 SW7       30.05F
PHILLIPS       CLOUDY    66  64  93 SW5       30.03F
ANTIGO         CLEAR     61  58  91 SW5       30.05F
TOMAHAWK       CLOUDY    65  61  85 CALM      30.05F
MERRILL        MOCLDY    65  62  89 CALM      30.04F
$$

WIZ013-073-120800-
NORTHEAST WISCONSIN

CITY           SKY/WX    TMP DP  RH WIND       PRES   REMARKS
IRON MOUNTAIN  PTCLDY    66  57  72 S6        30.01F
MARINETTE      CLOUDY    68  57  68 SW7       30.03S
OCONTO         MOCLDY    67  58  72 CALM      30.04S
$$

WIZ017-030-035>037-045-120800-
CENTRAL WISCONSIN

CITY           SKY/WX    TMP DP  RH WIND       PRES   REMARKS
MEDFORD        PTCLDY    65  63  92 S5        30.04F
WAUSAU         MOCLDY    68  61  78 S5        30.03F
MOSINEE        PTCLDY    63  61  94 S5        30.05F
MARSHFIELD     CLOUDY    66  63  90 SW5       30.05F
WISC RAPIDS    CLEAR     66  61  84 S3        30.06S
STEVENS POINT  MOCLDY    64  58  81 S3        30.05F
WAUPACA        PTCLDY    66  59  78 CALM      30.05S
SHAWANO        CLEAR     68  58  70 CALM      30.05S
CLINTONVILLE   CLEAR     66  57  72 CALM      30.04S
$$

WIZ038-039-048-051-120800-
FOX VALLEY

CITY           SKY/WX    TMP DP  RH WIND       PRES   REMARKS
NWS GREEN BAY  CLEAR     66  58  75 S6        30.04F
APPLETON       PTCLDY    64  55  72 SW6       30.05F
OSHKOSH        PTCLDY    67  59  75 S9        30.04F
FOND DU LAC    CLEAR     65  58  78 S9        30.05F
$$

WIZ022-050-052-120800-
EAST CENTRAL WISCONSIN

CITY           SKY/WX    TMP DP  RH WIND       PRES   REMARKS
STURGEON BAY   CLOUDY    66  55  68 S7        30.05F
MANITOWOC      CLEAR     58  53  84 SE5       30.06F
SHEBOYGAN      CLEAR     62  56  80 S6        30.06F
$$

LMZ563-521-522-541>543-120800-
LAKESHORE

STATION/POSITION TIME  TEMP    WIND        PRES    VSBY  WAVE
                       AIR SEA DIR/SP/G                  HT/PER
                 (UTC) (F)     (DEG/KT/KT) (MB)    (MI)  (FT/S)
SHEBOYGAN LKSHOR 0700   64     180/ 16/ 17 1018.0F
KEWAUNEE LKSHORE 0700   52     180/  7/  8 1018.5F
NORTHPORT PIER   0700   62     150/  6/  9 1017.3S
N MID LAKE BUOY  0700   58 53  200/ 14/ 17 1016.9F         2/ 5
MENOMINEE LKSHOR 0700   70     200/  7/  9 1017.6F
$$



USA.gov is the U.S. government's official web portal to all federal, state and local government web resources and services.